Regional Weather Roundup
Issued by NWS

Home | Current Version | Previous Version | Text Only | Print | Product List | Glossary Off
Versions: 1 2 3 4 5 6 7 8 9 10 11 12 13 14 15 16 17 18 19 20 21 22 23 24 25 26 27 28 29 30 31 32 33 34 35 36 37 38 39 40 41 42 43 44 45 46 47 48 49 50

923
ASUS43 KDTX 261910
RWRMI
MICHIGAN HOURLY REGIONAL WEATHER ROUNDUP
NATIONAL WEATHER SERVICE DETROIT/PONTIAC MI
ISSUED BY NATIONAL WEATHER SERVICE GRAND RAPIDS MI
200 PM EST SUN FEB 26 2017

NOTE: "FAIR" INDICATES FEW OR NO CLOUDS BELOW 12,000 FEET WITH NO
SIGNIFICANT WEATHER AND/OR OBSTRUCTION TO VISIBILITY.

MIZ047>049-052>055-059>063-066>070-074>076-081>083-262000-
SOUTHEAST LOWER MICHIGAN

CITY           SKY/WX    TMP DP  RH WIND       PRES   REMARKS
ADRIAN         SUNNY     37  21  52 SW15      30.05F WCI  28
ALMA           CLOUDY    35  21  57 S18G28    29.93F WCI  24
ANN ARBOR      MOSUNNY   37  19  48 S21       30.03F WCI  26
BAD AXE        PTSUNNY   36  17  47 SW18G24   29.94F WCI  25
DETROIT CITY   MOSUNNY   38  20  48 S21       30.04F WCI  28
DETROIT        PTSUNNY   40  18  41 SW20      30.05F WCI  30
FLINT          PTSUNNY   38  17  42 S16G24    29.98F WCI  29
GROSSE ILE     SUNNY     38  23  54 S17       30.05F WCI  28
HILLSDALE      MOSUNNY   36  19  51 S17G24    30.00F WCI  25
HOWELL         CLOUDY    38  17  42 SW13G22   29.98F WCI  30

CITY           SKY/WX    TMP DP  RH WIND       PRES   REMARKS
JACKSON        PTSUNNY   39  17  41 SW17G26   29.99F WCI  30
LANSING        CLOUDY    37  19  48 S17       29.96F WCI  27
MASON          CLOUDY    37  20  51 SW12G21   29.98F WCI  29
MONROE         SUNNY     39  20  47 SW16G22   30.05F WCI  30
MT. CLEMENS    MOSUNNY   38  19  46 S16G26    30.02F WCI  30
PONTIAC        PTSUNNY   37  17  44 SW17G23   29.98F WCI  27
PORT HOPE        N/A     36  17  46 S14G25    29.91F WCI  27
PORT HURON     SUNNY     36  21  55 S23G29    30.02F WCI  24
TRI CITIES     PTSUNNY   37  18  46 SW26G37   29.92F WCI  25
YPSILANTI      SUNNY     39  22  50 S21G28    30.04F WCI  29
$$
MIZ043>046-050>051-056>058-064>065-071>073-077>080-262000-
SOUTHWEST LOWER MICHIGAN

CITY           SKY/WX    TMP DP  RH WIND       PRES   REMARKS
BATTLE CREEK   CLOUDY    39  22  50 S24G31    29.95F WCI  28
BENTON HARBOR  CLOUDY    42  19  39 S17G28    29.96F
BIG RAPIDS     CLOUDY    35  22  59 SW15G35   29.85F WCI  25
COLDWATER      PTSUNNY   39  18  42 SW16G22   30.00F WCI  31
HOLLAND        PTSUNNY   39  20  46 SW26G36   29.92F WCI  28
GRAND RAPIDS   CLOUDY    37  21  52 SW20G29   29.91F WCI  27
KALAMAZOO      CLOUDY    39  22  50 S21G32    29.96F WCI  29
MARSHALL       CLOUDY    38  20  48 SW16G23   29.97F WCI  30
MOUNT PLEASANT CLOUDY    35  22  59 SW12G23   29.89F WCI  26
MUSKEGON       MOSUNNY   38  26  62 S28G39    29.91F WCI  26
STURGIS        CLOUDY    39  22  50 SW18G25   29.99F WCI  29
$$
MIZ016>042-262000-
NORTHERN LOWER MICHIGAN

CITY           SKY/WX    TMP DP  RH WIND       PRES   REMARKS
ALPENA         CLOUDY    36  21  54 S15G21    29.81F WCI  27
BEAVER ISLAND  LGT SNOW  31  29  92 SW24G33   29.73F WCI  18
BELLAIRE       CLOUDY    33  26  74 SW9G26    29.80F WCI  25
CADILLAC       LGT SNOW  31  25  79 SW24G33   29.81S WCI  17
CHARLEVOIX     LGT SNOW  32  27  80 SW14G28   29.79F WCI  22
GAYLORD        LGT SNOW  31  23  72 SW17G26   29.77F WCI  19
HOUGHTON LAKE  CLOUDY    33  22  63 S13G24    29.83F WCI  24
MANISTEE       FLURRIES  34  24  67 SW10G24   29.82F WCI  26
OSCODA         PTSUNNY   37  20  49 SW15G26   29.86F WCI  28
PELLSTON       LGT SNOW  33  22  63 SW16G36   29.75F WCI  23
TRAVERSE CITY  LGT SNOW  34  27  75 S7G16     29.79F WCI  28
LUDINGTON      CLOUDY    34  25  69 SW26G33   29.84F WCI  21
$$
MIZ007>008-015-262000-
EASTERN UPPER MICHIGAN

CITY           SKY/WX    TMP DP  RH WIND       PRES   REMARKS
KINROSS        LGT SNOW  31  26  82 SW13G21   29.71F WCI  21
MACKINAC ISLAN CLOUDY    32  24  73 SW18G29   29.73F WCI  20
NEWBERRY       LGT SNOW  28  27  94 SW16G22   29.67F WCI  17
S. S. MARIE    LGT SNOW  31  25  78 S16G24    29.70F WCI  20
$$
MIZ004>006-011>014-085-262000-
CENTRAL UPPER MICHIGAN

CITY           SKY/WX    TMP DP  RH WIND       PRES   REMARKS
MANISTIQUE     CLOUDY    29  24  81 SW8G16    29.71F WCI  21
ESCANABA       CLOUDY    33  21  61 SW15      29.70F WCI  23
MENOMINEE      MOSUNNY   35  21  56 SW16G24   29.73F WCI  25
SAWYER-GWINN   CLOUDY    28  21  74 SW16      29.64F WCI  17
$$
MIZ001>003-009>011-084-262000-
WESTERN UPPER MICHIGAN

CITY           SKY/WX    TMP DP  RH WIND       PRES   REMARKS
IRON MOUNTAIN  CLOUDY    33  19  56 SW13G22   29.65F WCI  24
HOUGHTON       CLOUDY    29  21  72 W15       29.59F WCI  18
COPPER HARBOR    N/A     32  21  64 W12       29.60F WCI  23
IRONWOOD       LGT SNOW  29  24  82 W17       29.65S WCI  17
$$

ABBREVIATIONS USED IN REMARKS
   TC - TEMPERATURE IN CELSIUS
  WCI - WIND CHILL INDEX
   HX - HEAT INDEX
  VSB - VISIBILITY





USA.gov is the U.S. government's official web portal to all federal, state and local government web resources and services.